Location: Ripley
(48.3812°N, 115.4473°W)
Time: 10:46:44
(UTC+00:00)

PicSat - Visible Passes

Search period start: 29 June 2022 00:00
Search period end: 09 July 2022 00:00
Orbit: 453 x 459 km, 97.4° (Epoch: 28 June)

Date Brightness Start Highest point End Pass type
(mag) Time Alt. Az. Time Alt. Az. Time Alt. Az.
29 Jun ? 05:06:31 12° ESE 05:08:54 23° ENE 05:11:42 10° NNE visible
29 Jun ? 06:40:17 19° SW 06:41:41 25° W 06:44:37 10° NW visible
30 Jun ? 04:34:58 10° ENE 04:36:00 11° ENE 04:37:00 10° NE visible
30 Jun ? 06:06:45 29° S 06:08:21 65° WSW 06:11:48 10° NNW visible
01 Jul ? 05:33:12 21° SE 05:35:10 46° ENE 05:38:29 10° N visible
01 Jul ? 07:06:58 11° WSW 07:08:18 13° W 07:09:59 10° WNW visible
02 Jul ? 04:59:38 11° ESE 05:02:05 20° ENE 05:04:41 10° NNE visible
02 Jul ? 06:33:23 22° SW 06:34:47 30° W 06:37:53 10° NNW visible
03 Jul ? 05:59:48 29° S 06:01:25 81° WSW 06:04:53 10° NNW visible
04 Jul ? 05:26:11 19° SE 05:28:11 38° ENE 05:31:25 10° N visible
04 Jul ? 06:59:56 13° WSW 07:01:13 16° W 07:03:24 10° NW visible
05 Jul ? 04:52:47 10° ESE 04:55:04 17° ENE 04:57:23 10° NNE visible
05 Jul ? 06:26:18 25° SW 06:27:40 37° W 06:30:55 10° NNW visible
06 Jul ? 05:52:38 29° SSE 05:54:16 81° ENE 05:57:44 10° N visible
07 Jul ? 05:18:57 17° ESE 05:20:59 31° ENE 05:24:05 10° N visible
07 Jul ? 06:52:42 16° WSW 06:53:55 19° W 06:56:27 10° NW visible
08 Jul ? 04:45:56 10° E 04:47:51 14° ENE 04:49:47 10° NNE visible
08 Jul ? 06:19:00 29° SSW 06:20:21 46° W 06:23:42 10° NNW visible
